Regional Weather Roundup
Issued by NWS Jackson, KY

Home | Current Version | Previous Version | Text Only | Print | Product List | Glossary On
Versions: 1 2 3 4 5 6 7 8 9 10 11 12 13 14 15 16 17 18 19 20 21 22 23 24 25 26 27 28 29 30 31 32 33 34 35 36 37 38 39 40 41 42 43 44 45 46 47 48 49 50
000
ASUS43 KJKL 210910
RWRJKL

EAST KENTUCKY HOURLY WEATHER ROUNDUP
NATIONAL WEATHER SERVICE JACKSON KY
400 AM EST WED FEB 21 2018

NOTE: "FAIR" INDICATES FEW OR NO CLOUDS BELOW 12,000 FEET WITH
NO SIGNIFICANT WEATHER AND/OR OBSTRUCTIONS TO VISIBILITY.

* THESE REPORTS ARE NOT UNDER NWS QUALITY CONTROL AND MAY NOT
  REPORT WEATHER SUCH AS PRECIPITATION AND FOG.

KYZ079-080-083-085-087-088-110-112-115-119-120-211000
...EASTERN KENTUCKY...

CITY           SKY/WX    TMP DP  RH WIND       PRES   REMARKS
JACKSON          N/A     66  52  60 VRB5      30.24S
LONDON           N/A     67  57  70 S7        30.24S
SOMERSET*        N/A     66  57  72 MISG      30.23F
WILLIAMSBURG*  PTSUNNY   68  59  73 S12       30.25F
MIDDLESBORO*   MOCLDY    67  57  71 SE6       30.29F
HARLAN APT*    PTSUNNY   66  54  63 E3        30.30S
PIKE CO APT*     N/A     64  53  66 S6        30.26S
BIG SANDY APT*   N/A     66  52  60 S9        30.25S
MOREHEAD APT*    N/A     68  55  64 S13G21    30.20S
ASHLAND*         N/A     66  52  60 SE5       30.19S
$$

KYZ035-036-041-042-044-050-067-078-099-211000
...CENTRAL KENTUCKY...

CITY           SKY/WX    TMP DP  RH WIND       PRES   REMARKS
MT STERLING*     N/A     68  57  68 SW17G29   30.19F
FLEMING/MASON*   N/A     67  58  72 SW15G21   30.18S
DANVILLE*        N/A     64  57  77 S9        30.19F
LEXINGTON        N/A     68  58  70 S20G26    30.15F
FRANKFORT        N/A     70  58  65 SW22G30   30.13S
LOUISVILLE     MOCLDY    71  60  68 S14G25    30.10S
LEBANON*         N/A     68  59  73 S18G29    30.15S
GLASGOW*         N/A     70  61  72 S17G28    30.16S
BOWLING GREEN    N/A     70  63  78 S17G29    30.15R
$$

KYZ091>093-OHZ055-061-077-WVZ005-015-034-035-042-211000
...SOUTHERN OHIO/WEST VIRGINIA...

CITY           SKY/WX    TMP DP  RH WIND       PRES   REMARKS
COVINGTON        N/A     66  60  81 S17       30.09F
COLUMBUS         N/A     66  55  67 S12       30.11F
DAYTON           N/A     66  60  81 S20G30    30.07S
WILMINGTON       N/A     63  57  81 S13       30.12S
HUNTINGTON       N/A     68  50  52 S12       30.20S
CHARLESTON       N/A     68  52  56 S10       30.23S
BECKLEY          N/A     58  51  78 SE6       30.34S
BLUEFIELD        N/A     60  51  72 VRB7      30.36F
LOGAN CO APT*    N/A     66  52  59 S10G17    30.27S
$$

VAZ002-007-008-TNZ017-027-036-066-071-211000
...SOUTHWEST VIRGINIA/EAST TENNESSEE...

CITY           SKY/WX    TMP DP  RH WIND       PRES   REMARKS
WISE*            N/A     63  55  77 S14       30.34S
JONESVILLE*    CLOUDY    64  57  77 CALM      30.34R
ABINGDON*      MOCLDY    56  52  87 CALM      30.35S
BRISTOL        CLOUDY    64  57  78 SE3       30.32F
MORRISTOWN*    CLOUDY    63  55  77 CALM      30.31S
SEVIERVILLE*   CLOUDY    63  55  77 E6        30.30R
KNOXVILLE      MOCLDY    64  61  90 W6        30.29F
LAFOLLETTE*    CLOUDY    70  61  73 S13G21    30.31F
OAK RIDGE      MOCLDY    65  61  87 CALM      30.31F
CROSSVILLE     MOCLDY    64  59  83 S10G23    30.29F
NASHVILLE      MOCLDY    71  63  75 S16       30.20S
$$

...KEY TO REMARKS...
VSB - VISIBILITY IN MILES
WCI - WIND CHILL INDEX
HX  - HEAT INDEX

$$



USA.gov is the U.S. government's official web portal to all federal, state and local government web resources and services.